SCP
0 0 0 0 0 0 0 0 0 0 0 0 0 0 0 0 0 0 0 0 0 0 0 0 1 1 1 1 1 1 1 1 1 1 1 1 1 1 1 1 1 1 1
0 0 1 1 1 0 0 0 0 0 0 0 0 0 0 0 0 0 0 0 0 0 0 0 0 0 1 1 1 1 1 1 1 1 1 1 1 1 1 1 1 1 1
1 1 1 1 1 1 1 1 0 0 0 0 0 0 0 0 0 0 0 0 0 0 0 0 0 0 0 0 1 1 1 1 1 1 1 1 1 1 1 1 1 1 1
1 1 1 1 1 1 1 1 1 0 0 0 0 0 0 0 0 0 0 0 0 0 0 0 0 0 0 0 0 0 1 1 1 1 1 1 1 1 1 1 1 1 1
1 1 1 1 1 1 1 1 1 0 0 0 0 0 0 0 0 0 0 0 0 0 0 0 0 0 0 0 0 0 0 0 0 0 0 0 1 1 1 1 1 1 1
1 1 1 1 1 1 1 1 1 0 0 0 0 0 0 0 0 0 0 0 0 0 0 0 0 0 0 0 0 0 0 0 0 0 0 0 0 0 0 0 0 1 1
1 1 1 1 1 1 1 0 0 0 0 0 0 0 0 0 0 0 0 0 0 0 0 0 0 0 0 0 0 0 0 0 0 0 0 0 0 0 0 0 0 0 0
1 1 1 0 0 0 0 0 0 0 0 0 0 0 0 0 0 0 0 0 0 0 0 0 0 0 0 0 0 0 0 0 0 0 0 0 0 0 0 0 0 0 0
0 0 0 0 0 0 0 0 0 0 0 0 0 0 0 0 0 0 0 0 0 0 0 0 0 0 0 0 0 0 0 0 0 0 0 0 0 0 0 0 0 0 0
0 0 0 0 0 0 0 0 0 0 0 0 0 0 0 0 0 0 0 0 0 0 0 0 0 0 0 0 0 0 0 0 0 0 0 0 0 0 0 0 0 0 0
0 0 0 0 0 0 0 0 0 0 0 0 0 0 0 0 0 0 0 0 0 0 0 0 0 0 0 0 0 0 0 0 0 0 0 0 0 0 0 0 0 0 0
0 0 0 0 0 0 0 0 0 0 0 0 0 0 0 0 0 0 0 0 0 0 0 0 0 0 0 0 0 0 0 0 0 0 0 0 0 0 0 0 0 0 0
0 0 0 0 0 0 0 0 0 0 0 0 0 0 0 0 0 0 0 0 0 0 0 0 0 0 0 0 0 0 0 0 0 0 0 0 0 0 0 0 0 0 0
0 0 0 0 0 0 0 0 0 0 0 0 0 0 0 0 0 0 0 0 0 0 0 0 0 0 0 0 0 0 0 0 0 0 0 0 0 0 0 0 0 0 0
0 0 0 0 0 0 0 0 0 0 0 0 0 0 0 0 0 0 0 0 0 0 0 0 0 0 0 0 0 0 0 0 0 0 0 0 0 0 0 0 0 0 0
0 0 0 0 0 0 0 0 0 0 0 0 0 0 0 0 0 0 0 0 0 0 0 0 0 0 0 0 0 0 0 0 0 0 0 0 0 0 0 0 0 0 0
0 0 0 0 0 0 0 0 0 0 0 0 0 0 0 0 0 0 0 0 0 0 0 0 0 0 0 0 0 0 0 0 0 0 0 0 0 0 0 0 0 0 0
0 0 0 0 0 0 0 0 0 0 0 0 0 0 0 0 0 0 0 0 0 0 0 0 0 0 0 0 0 0 0 0 0 0 0 0 0 0 0 0 0 0 0
0 0 0 0 0 0 0 0 0 0 0 0 0 0 0 0 0 0 0 0 0 0 0 0 0 0 0 0 0 0 0 0 0 0 0 0 0 0 0 0 0 0 0
0 0 0 0 0 0 0 0 0 0 0 0 0 0 0 0 0 0 0 0 0 0 0 0 0 0 0 0 0 0 0 0 0 0 0 0 0 0 0 0 0 0 0
0 0 0 0 0 0 0 0 0 0 0 0 0 0 0 0 0 0 0 0 0 0 0 0 0 0 0 0 0 0 0 0 0 0 0 0 0 0 0 0 0 0 0
0 0 0 0 0 0 0 0 0 0 0 0 0 0 0 0 0 0 0 0 0 0 0 0 0 0 0 0 0 0 0 0 0 0 0 0 0 0 0 0 0 0 0
0 0 0 0 0 0 0 0 0 0 0 0 0 0 0 0 0 0 0 0 0 0 0 0 0 0 0 0 0 0 0 0 0 0 0 0 0 0 0 0 0 0 0
0 0 0 0 0 0 0 0 0 0 0 0 0 0 0 0 0 0 0 0 0 0 0 0 0 0 0 0 0 0 0 0 0 0 0 0 0 0 0 0 0 0 0
0 0 0 0 0 0 0 0 0 0 0 0 0 0 0 0 0 0 0 0 0 0 0 0 0 0 0 0 0 0 0 0 0 0 0 0 0 0 0 0 0 0 0
0 0 0 0 0 0 0 0 0 0 0 0 0 0 0 0 0 0 0 0 0 0 0 0 0 0 0 0 0 0 0 0 0 0 0 0 0 0 0 0 0 0 0
Wind_Speed
5 5 4 3 4 3 5 4 4 3 4 5 3 2 2 0 2 2 4 8 4 2 0 2 4 5 6 7 7 8 8 8 7 8 8 8 8 7 7 6 6 6 6
4 4 4 4 4 3 3 3 3 3 3 2 2 1 3 1 1 3 2 5 7 5 3 2 2 3 5 6 7 7 7 8 8 8 8 9 9 8 8 8 8 8 7
4 4 4 4 3 3 2 3 3 3 2 2 2 1 1 2 2 2 3 3 2 7 6 5 4 2 2 4 6 6 7 7 8 8 8 8 9 9 9 9 9 9 8
5 4 4 3 2 2 3 3 2 2 2 2 1 1 1 1 1 2 3 3 3 1 6 8 7 6 4 3 3 5 6 6 7 8 9 9 9 9 9 9 10 10 10
4 3 2 1 1 1 1 1 1 1 1 1 1 1 2 2 2 1 2 3 1 2 1 7 7 8 7 7 6 5 4 4 4 5 7 8 9 8 9 10 11 10 10
0 1 1 0 0 1 1 2 3 2 1 1 3 1 2 2 2 1 2 1 1 1 2 1 2 5 5 5 5 5 5 5 5 6 7 8 8 8 8 10 11 12 12
2 2 1 1 1 2 2 3 2 2 1 1 2 3 2 2 2 2 2 2 1 1 2 2 3 3 2 5 2 3 5 6 7 8 8 9 9 9 9 11 12 13 13
3 3 3 3 3 3 4 3 3 2 1 1 3 4 4 5 5 4 3 4 3 3 4 4 4 4 6 5 3 1 4 7 8 10 11 11 11 12 12 12 13 14 15
4 4 4 3 3 3 3 3 3 4 2 2 1 3 4 4 2 5 5 5 5 5 6 5 7 6 7 7 7 6 4 7 10 12 13 14 14 14 15 15 16 16 17
4 4 4 4 4 4 4 4 2 1 2 2 2 1 2 4 4 4 5 6 7 7 8 7 8 8 8 8 7 8 8 9 11 14 15 16 16 17 18 18 18 19 19
5 5 5 5 4 4 4 4 3 2 1 0 1 1 1 2 4 6 6 5 6 7 7 7 7 8 9 9 9 9 5 8 12 15 17 18 18 19 20 20 21 21 22
6 7 7 6 5 5 5 5 4 4 3 2 1 1 2 3 4 5 8 8 8 7 7 7 8 9 8 9 11 7 7 11 15 17 18 19 20 21 21 22 22 23 23
6 7 7 6 6 5 5 4 4 3 3 2 1 2 3 4 5 6 8 9 10 9 9 8 8 8 8 8 9 6 11 14 16 18 18 19 20 21 22 23 23 24 24
7 8 7 7 7 6 5 4 3 3 1 1 2 3 4 5 5 7 8 10 11 11 10 10 7 8 8 9 7 5 12 15 17 17 18 19 21 22 23 23 24 24 24
8 8 8 7 6 5 4 3 3 2 1 2 3 4 5 6 6 7 8 9 11 13 12 10 9 9 8 10 9 11 14 14 16 17 19 20 22 23 24 24 24 24 24
9 9 8 7 6 6 5 3 3 2 1 2 3 5 6 7 6 7 8 8 9 11 13 10 10 10 10 11 13 14 15 17 19 21 21 21 22 22 23 24 25 25 25
8 8 7 7 6 5 4 2 2 2 3 4 5 6 7 8 8 8 8 8 9 10 12 11 10 10 12 13 13 13 14 14 13 15 16 17 19 21 22 24 24 24 25
8 7 7 6 5 4 3 3 3 3 4 5 6 7 8 7 8 9 8 9 9 9 11 13 11 11 13 13 14 14 13 12 13 14 13 16 20 21 22 23 24 23 22
8 7 6 5 4 3 3 3 4 5 6 7 7 8 9 9 9 9 9 9 9 9 9 11 12 11 11 12 13 13 14 12 13 13 13 17 21 22 22 21 21 20 19
7 6 4 3 2 2 3 5 6 6 7 8 8 8 9 9 9 10 9 10 9 10 10 10 11 11 11 12 11 11 11 10 10 12 14 14 15 16 19 20 21 22 20
5 4 3 2 2 2 6 8 9 8 8 9 9 9 8 8 10 10 10 11 11 10 10 10 11 11 11 10 10 10 10 10 11 11 11 11 10 10 12 16 20 22 20
4 3 4 3 3 5 8 8 10 11 10 10 10 9 9 9 7 10 13 14 15 15 13 12 11 12 13 12 10 9 10 10 9 8 9 11 11 11 10 10 10 11 14
4 4 4 4 4 7 6 7 10 12 11 9 10 9 8 7 9 9 10 14 16 16 17 14 14 13 13 12 12 12 10 11 11 10 10 11 10 10 9 9 9 10 12
3 4 4 5 4 5 5 8 13 12 9 9 9 9 9 9 7 10 14 15 14 13 11 11 11 12 12 11 11 11 11 12 12 10 8 9 9 9 10 8 7 10 11
4 4 4 5 5 3 5 7 13 10 8 9 9 8 8 9 7 11 14 14 14 12 10 10 12 14 15 15 12 9 9 8 9 9 7 6 7 10 10 8 3 6 9
4 4 4 4 5 5 3 5 12 8 8 8 8 8 5 5 11 13 13 13 13 13 13 13 10 9 9 8 8 8 7 7 7 6 4 4 6 6 6 7 6 4 5
Wind_Direction
213 208 213 223 229 209 195 218 218 183 209 201 211 225 247 284 301 304 116 101 88 79 39 253 243 238 236 232 229 227 226 221 220 216 213 213 215 218 221 224 225 224 225
219 222 216 211 229 230 230 219 203 196 220 220 213 235 285 287 42 297 313 126 105 77 51 8 307 268 252 242 233 228 223 223 225 225 222 221 221 221 222 225 226 225 224
221 234 239 221 220 210 195 224 199 214 208 204 203 215 273 307 333 315 299 296 166 109 74 52 35 360 294 270 256 245 238 234 233 230 229 229 229 228 228 228 228 227 224
235 238 249 246 230 225 212 205 219 219 216 237 235 271 279 262 295 302 291 289 307 300 102 67 53 44 29 352 301 273 260 255 251 247 245 244 242 239 235 234 232 231 229
246 249 263 284 272 249 229 201 133 268 250 276 254 256 293 295 294 300 321 314 340 302 326 103 84 63 51 42 32 18 345 310 290 282 271 263 259 254 248 243 239 236 234
293 327 7 347 246 147 115 107 109 65 9 326 296 299 303 309 285 273 257 238 287 284 306 327 211 118 87 53 30 15 1 350 328 310 296 286 284 282 273 259 248 243 240
129 125 116 135 168 164 160 151 132 146 154 254 249 239 224 242 264 246 250 250 202 256 273 277 286 305 212 154 126 4 338 327 318 311 303 300 302 299 293 279 263 254 250
138 146 165 172 177 170 166 163 161 180 176 220 262 262 246 212 210 218 224 228 245 249 253 256 291 278 289 287 131 217 296 304 303 300 297 295 293 292 292 291 282 268 259
135 134 152 162 155 152 150 151 170 192 189 181 272 277 277 282 225 193 219 235 244 260 267 269 262 268 272 279 279 235 261 293 293 291 289 289 289 287 285 284 283 280 272
120 124 129 133 132 129 135 145 145 169 185 183 156 310 322 333 297 272 213 219 234 252 266 276 279 273 265 264 265 275 259 269 284 287 286 285 285 284 282 279 278 277 276
107 112 112 108 105 101 102 102 107 95 104 127 171 196 237 253 262 278 285 273 252 251 258 267 274 278 277 269 269 269 257 271 279 281 281 281 282 280 280 278 276 274 273
108 107 104 100 97 95 95 95 94 89 71 64 2 313 288 287 286 287 285 281 280 278 276 277 276 272 272 273 271 286 287 279 278 278 279 280 280 279 278 277 276 274 273
107 103 102 102 100 98 99 98 96 85 78 66 339 315 306 297 300 293 289 290 289 285 276 265 265 274 280 282 284 295 277 275 275 275 276 278 278 277 276 276 275 275 274
102 106 104 104 105 105 105 104 104 96 81 7 309 305 291 284 293 291 293 296 292 288 281 279 286 286 289 292 299 309 283 273 269 269 272 274 275 275 274 273 273 273 273
112 109 106 101 98 94 90 87 75 60 35 321 304 291 293 300 290 291 288 285 290 293 291 298 294 292 294 289 298 292 288 284 281 277 273 271 271 271 271 271 270 270 270
102 105 100 96 93 89 89 87 99 65 339 322 317 314 305 298 304 289 284 285 284 286 290 297 293 294 301 297 293 291 288 285 273 265 263 264 266 268 269 269 268 267 267
95 97 98 98 95 91 84 67 39 1 326 322 311 309 307 310 302 305 295 288 286 288 290 294 296 299 298 290 291 289 288 286 282 268 261 262 264 265 266 267 267 266 266
94 97 97 95 92 84 65 36 5 345 330 327 325 316 309 306 302 292 296 297 297 297 292 293 295 295 293 291 286 286 285 284 285 285 273 267 268 266 265 264 264 263 263
87 85 86 85 79 63 38 9 345 337 332 325 319 312 309 305 299 301 301 294 293 292 290 289 292 294 290 289 291 286 286 285 286 285 273 261 262 260 259 258 258 258 256
82 81 80 76 62 33 12 354 339 332 323 317 310 305 301 301 302 305 297 293 295 296 291 289 289 290 290 293 292 291 292 291 290 290 287 282 272 260 255 254 255 254 252
81 84 76 59 27 28 27 359 336 325 319 311 306 303 301 307 302 298 303 309 306 299 296 294 293 293 293 296 294 296 296 298 292 289 288 284 280 272 264 251 248 249 248
66 54 40 25 12 44 44 6 332 321 314 309 310 310 305 287 288 279 275 283 289 291 297 295 293 292 295 298 300 298 299 298 296 294 294 291 289 285 281 273 263 251 242
51 35 20 8 21 69 39 357 336 313 307 313 312 309 307 315 306 307 307 293 281 269 267 278 286 291 297 301 303 302 297 295 293 292 289 288 292 290 286 282 261 250 245
32 20 11 1 355 67 44 348 329 300 305 312 309 305 307 312 333 337 316 303 299 298 293 285 288 293 297 301 301 296 293 291 287 285 287 289 298 300 298 291 265 244 247
22 7 12 357 349 49 55 350 329 314 314 315 310 307 308 311 357 334 309 301 302 305 298 283 278 281 283 280 281 288 290 292 298 304 312 300 305 310 305 302 280 233 243
16 0 11 357 348 358 57 348 328 316 320 317 312 309 294 327 329 315 308 306 308 316 319 315 307 297 291 286 266 273 290 294 299 300 319 309 299 309 304 307 312 292 252